Firth, NE (68358)

1:26 AM CDT on August 27, 2016 (GMT -0500)
Woodland Plaza | | Change Station

Elev 1283 ft 40.63 °N, 96.63 °W | Updated 13 minutes ago

Overcast
Overcast
66.7 °F
Feels Like 66.7 °F
N
0.0
Wind Variable Wind from West

Today
High -- | Low -- °F
--% Chance of Precip.
Yesterday
High -- | Low -- °F
Precip. -- in
Pressure 30.03 in
Visibility 10.0 miles
Clouds Overcast 400 ft
Dew Point 66 °F
Humidity 97%
Rainfall 0.00 in
Snow Depth Not available.
6:49 AM 8:05 PM
Waning Crescent, 27% visible
METAR KBIE 270615Z AUTO 15004KT 10SM OVC004 20/19 A3003 RMK AO2 T02000191
Pressure 30.03 in
Visibility 10.0 miles
Clouds Overcast 400 ft
Dew Point 66 °F
Humidity 97%
Rainfall 0.00 in
Snow Depth Not available.
6:49 AM 8:05 PM
Waning Crescent, 27% visible
METAR KBIE 270615Z AUTO 15004KT 10SM OVC004 20/19 A3003 RMK AO2 T02000191

10-Day Weather Forecast

Almanac

Astronomy

Aug. 27, 2016 Rise Set
Actual Time
Civil Twilight
Nautical Twilight
Astronomical Twilight
Moon
Length of Visible Light
Length of Day
Tomorrow will be .
, % of the Moon is Illuminated

Today's Extremes

State Highs State Lows

Community

WunderPhotos

Upload Photos

1,935,303 photos uploaded!

WunderBlog® & News

Nearby

Air Quality

  Air Quality AQ Index Pollutant
Not available.

Snow Depth

Station Depth Elevation

Earthquake Activity

City Distance Mag. Time & Date
Minimum magnitude displayed is 2.5.

Coastal Water Temperatures

Place Temperature

Stations

Nearby Weather Stations

Station Location Temp. Windchill Dew Point Humidity Wind Precip. Elev Updated Type
                   

Watches & Warnings

There are currently no watches in effect.